Content
SEND FEEDBACK

Daily
Averages
Monthly
Summary
United States of America

CROWLEY, COLORADO


Home > North America > United States > Colorado
Elevation: 1311 meters     Latitude: 38 13N     Longitude: 103 45W

WEATHER
 
SELECT A DAY
Number of Records: 186,007;   Date Range: 1/1/95 - 9/20/14
 
SHARE

PRINT THIS DATA

[ ← Previous Day ]
WEATHER ALMANAC - 13 FEBRUARY, 2013
[ Next Day → ]
[ °F ]   °C
Weather ElementAverageHighLow
Temperature1.4 °C11.7 °C (3:53 pm)-10.6 °C (6:53 am)
Dewpoint-12.4 °C-10.6 °C (9:53 am)-15 °C (9:53 pm)
Humidity39.8 %74 % (6:53 am)19 % (2:53 pm)
Barometer1015.9 hPa1019 hPa (6:53 am)1012.5 hPa (2:53 pm)
Wind Speed11.6 km/h20.4 km/h (1:53 am)
Weather ElementAverage
Visibility16.1 km
Wind DirectionS (182.2 °)

Weather ElementTotal
Precipitation---
Heating Degree Days17.8 (Base 18.3)
Averaged from 23 records on 13 February, 2013
WEATHER CONDITIONS BREAKOUT
WIND DIRECTION BREAKOUT
WEATHER BY HOUR - 13 FEBRUARY, 2013
[ °F ]   °C
Local TimeTemperatureDewpointHumidityBarometerVisibilityWind DirectionWind SpeedGust SpeedPrecipitationEventsConditions
1:53 AM-6.7 °C-13.9 °C57 %1017.9 hPa16.1 kmWest (270°)20.4 km/hClear
2:53 AM-7.8 °C-13.9 °C62 %1017.9 hPa16.1 kmWest (280°)18.5 km/hClear
3:53 AM-8.3 °C-13.9 °C65 %1017.6 hPa16.1 kmWest (260°)16.7 km/hClear
4:53 AM-8.3 °C-13.3 °C68 %1017.3 hPa16.1 kmWSW (250°)20.4 km/hClear
5:53 AM-8.9 °C-13.9 °C68 %1018.3 hPa16.1 kmWest (280°)9.3 km/hClear
6:53 AM-10.6 °C-14.4 °C74 %1019 hPa16.1 kmWest (280°)16.7 km/hClear
7:53 AM-6.1 °C-12.8 °C60 %1018.3 hPa16.1 kmWest (280°)14.8 km/hClear
8:53 AM-2.8 °C-12.2 °C49 %1017.9 hPa16.1 kmWest (270°)11.1 km/hClear
9:53 AM1.7 °C-10.6 °C40 %1016.9 hPa16.1 kmWSW (250°)16.7 km/hClear
10:53 AM6.1 °C-11.1 °C28 %1015.6 hPa16.1 kmWest (260°)13 km/hClear
11:53 AM8.9 °C-10.6 °C24 %1014.6 hPa16.1 kmSW (230°)11.1 km/hClear
12:53 PM10 °C-11.1 °C22 %1012.9 hPa16.1 kmCalmClear
1:53 PM10.6 °C-11.1 °C21 %1012.9 hPa16.1 kmSouth (190°)7.4 km/hClear
2:53 PM11.1 °C-11.7 °C19 %1012.5 hPa16.1 kmSSE (160°)13 km/hClear
3:53 PM11.7 °C-11.7 °C19 %1012.9 hPa16.1 kmSSW (210°)9.3 km/hClear
4:53 PM11.1 °C-11.1 °C20 %1012.9 hPa16.1 kmCalmClear
5:53 PM8.9 °C-10.6 °C24 %1013.9 hPa16.1 kmSSE (160°)5.6 km/hClear
6:53 PM6.7 °C-10.6 °C28 %1015.2 hPa16.1 kmENE (70°)5.6 km/hClear
7:53 PM3.9 °C-11.7 °C32 %1015.9 hPa16.1 kmNorth (360°)11.1 km/hClear
8:53 PM1.7 °C-13.9 °C31 %1016.3 hPa16.1 kmNNE (20°)13 km/hClear
9:53 PM0.6 °C-15 °C31 %1016.3 hPa16.1 kmNorth (10°)11.1 km/hClear
10:53 PM1.7 °C-13.3 °C33 %1015.9 hPa16.1 kmNNE (20°)13 km/hClear
11:53 PM-1.7 °C-13.9 °C40 %1016.6 hPa16.1 kmEast (80°)7.4 km/hClear
Hourly data recorded from KLHX, located 0 kilometers away from Crowley, Colorado







STORIES FROM OUR PARTNERS